Regional Weather Roundup
Issued by NWS

Home | Current Version | Previous Version | Text Only | Print | Product List | Glossary On
Versions: 1 2 3 4 5 6 7 8 9 10 11 12 13 14 15 16 17 18 19 20 21 22 23 24 25 26 27 28 29 30 31 32 33 34 35 36 37 38 39 40 41 42 43 44 45 46 47 48 49 50
000
ASUS42 KFFC 191103
RWRGA
WEATHER ROUNDUP FOR GEORGIA
NATIONAL WEATHER SERVICE PEACHTREE CITY GA
600 AM EST MON FEB 19 2018

NOTE: "FAIR" INDICATES FEW OR NO CLOUDS BELOW 12,000 FEET WITH NO
SIGNIFICANT WEATHER AND/OR OBSTRUCTIONS TO VISIBILITY.

* = USE WITH CAUTION. THE STATIONS MARKED WITH AN ASTERISK MAY NOT
REPORT WEATHER SUCH AS PRECIPITATION, FOG, OR THUNDER AND ARE NOT
QUALITY CONTROLLED BY NWS.

THE REMARK "TC" DENOTES TEMPERATURE READING IN DEGREES CELSIUS.

GAZ001>058-191200-
NORTH GEORGIA

CITY           SKY/WX    TMP DP  RH WIND       PRES   REMARKS
ATLANTA        DRZL/FOG  60  60 100 E7        30.30R VSB 1/2
ATHENS         CLOUDY    57  57 100 E9        30.34R FOG
CHAMBLEE       CLOUDY    57  56  96 E7        30.31S FOG
PEACHTREE CITY FOG       61  61 100 E5        30.30R VSB 1
ROME           CLOUDY    59  59 100 SE6       30.27R FOG
WEST ATLANTA   CLOUDY    59  59 100 E6        30.30R FOG
GAINESVILLE    CLOUDY    53  53 100 E7        30.36R FOG
CARTERSVILLE   CLOUDY    58  58 100 VRB7      30.30R FOG


CITY           SKY/WX    TMP DP  RH WIND       PRES   REMARKS
DALTON*        CLOUDY    57  55  94 CALM      30.29S
LAWRENCEVILLE* LGT RAIN  56  55  97 NE6         N/A  FOG
MARIETTA       CLOUDY   N/A N/A N/A E8        30.31S FOG
KENNESAW*      CLOUDY    57  57 100 E8        30.31R
CANTON*        CLOUDY    55  55 100 E7        30.33S FOG
BLAIRSVILLE*   CLOUDY    56  53  88 E7        30.33R
$$

GAZ059>098-102>109-191200-
CENTRAL GEORGIA

CITY           SKY/WX    TMP DP  RH WIND       PRES   REMARKS
AUGUSTA-BUSH   CLOUDY    57  53  86 SE3       30.35R
AUGUSTA-DANIEL CLOUDY    58  52  80 SE3       30.36R
COLUMBUS       CLOUDY    66  62  87 SE3       30.27R
MACON          CLOUDY    62  60  93 SE7       30.31R
ROBINS AFB     CLOUDY    62  60  91 SE5       30.31R


CITY           SKY/WX    TMP DP  RH WIND       PRES   REMARKS
LAGRANGE*      CLOUDY    65  65  98 S6        30.28R
SYLVANIA*      CLOUDY    60  58  94 E3        30.35S
MILLEDGEVILLE* CLOUDY    63  61  94 CALM      30.33R FOG
$$

GAZ099>101-110>166-191200-
SOUTH GEORGIA

CITY           SKY/WX    TMP DP  RH WIND       PRES   REMARKS
SAVANNAH       FOG       59  59 100 E3        30.34R VSB 1/4
VALDOSTA       CLOUDY    62  61  96 E6        30.29R
ALMA           CLOUDY    64  61  90 CALM      30.31R
ST SIMONS      FOG       62  61  96 N6        30.31R VSB 1/2
FT STEWART     CLOUDY    59  58  96 CALM      30.32R FOG
ALBANY         FAIR      61  60  97 E3        30.30R FOG
HUNTER AFB     CLOUDY    59  56  92 NE3       30.31R
MOODY AFB      CLOUDY    62  62  99 SE5       30.29R
BRUNSWICK      FOG       61  59  94 NE3       30.33R VSB 1/4


CITY           SKY/WX    TMP DP  RH WIND       PRES   REMARKS
BAINBRIDGE*    FAIR      63  63 100 E5        30.26S
MOULTRIE*      CLOUDY    63  61  94 CALM      30.29R
VIDALIA*       CLOUDY    61  59  94 E3        30.33S
WAYCROSS*      CLOUDY    64  62  91 SE5       30.32R
DOUGLAS*       CLOUDY    63  61  94 CALM      30.33R
$$




USA.gov is the U.S. government's official web portal to all federal, state and local government web resources and services.